| time (UTC) | temp C | wind direction | speed KPH | gust KPH | rain 1hr cm | rain 24hr cm | rain mn cm | humidity % | barometer mb |
| 20260904144533 | 23 | 307 | 0.0 | 16.1 | 0.00 | 0.00 | 0.00 | 76 | 1009.8 |
| 20260904143036 | 23 | 339 | 6.4 | 16.1 | 0.00 | 0.00 | 0.00 | 75 | 1009.8 |
| 20260904141532 | 23 | 312 | 9.7 | 17.7 | 0.00 | 0.00 | 0.00 | 76 | 1010.0 |
| 20260904140030 | 23 | 299 | 8.0 | 19.3 | 0.00 | 0.00 | 0.00 | 77 | 1010.0 |
| 20260904134530 | 22 | 301 | 12.9 | 20.9 | 0.00 | 0.00 | 0.00 | 78 | 1010.0 |
| 20260904133026 | 22 | 315 | 9.7 | 19.3 | 0.00 | 0.00 | 0.00 | 85 | 1010.1 |
| 20260904131525 | 20 | 284 | 0.0 | 6.4 | 0.00 | 0.00 | 0.00 | 87 | 1010.1 |
| 20260904130039 | 20 | 245 | 0.0 | 0.0 | 0.00 | 0.00 | 0.00 | 87 | 1010.1 |
| 20260904124525 | 20 | 245 | 0.0 | 0.0 | 0.00 | 0.00 | 0.00 | 88 | 1010.2 |
| 20260904123025 | 20 | 245 | 0.0 | 0.0 | 0.00 | 0.00 | 0.00 | 88 | 1010.1 |
| 20260904121521 | 18 | 245 | 0.0 | 0.0 | 0.00 | 0.00 | 0.00 | 88 | 1010.2 |
| 20260904120033 | 18 | 245 | 0.0 | 0.0 | 0.00 | 0.00 | 0.00 | 87 | 1010.1 |
| 20260904114549 | 18 | 245 | 0.0 | 0.0 | 0.00 | 0.00 | 0.00 | 88 | 1010.0 |
| 20260904113050 | 18 | 245 | 0.0 | 0.0 | 0.00 | 0.00 | 0.00 | 88 | 1009.9 |
| 20260904111546 | 17 | 245 | 0.0 | 0.0 | 0.00 | 0.00 | 0.00 | 88 | 1009.8 |
| 20260904110048 | 17 | 245 | 0.0 | 0.0 | 0.00 | 0.00 | 0.00 | 88 | 1009.9 |
| 20260904104545 | 17 | 245 | 0.0 | 0.0 | 0.00 | 0.00 | 0.00 | 88 | 1009.9 |
| 20260904103043 | 18 | 245 | 0.0 | 0.0 | 0.00 | 0.00 | 0.00 | 88 | 1009.8 |
| 20260904101513 | 18 | 245 | 0.0 | 0.0 | 0.00 | 0.03 | 0.00 | 88 | 1009.6 |
| 20260904100011 | 18 | 245 | 0.0 | 0.0 | 0.00 | 0.03 | 0.00 | 88 | 1009.4 |
| 20260904094509 | 18 | 245 | 0.0 | 0.0 | 0.00 | 0.03 | 0.00 | 88 | 1009.4 |
| 20260904093008 | 18 | 245 | 0.0 | 0.0 | 0.00 | 0.03 | 0.00 | 88 | 1009.7 |
| 20260904091535 | 18 | 245 | 0.0 | 0.0 | 0.00 | 0.05 | 0.00 | 88 | 1009.7 |
| 20260904090035 | 18 | 245 | 0.0 | 0.0 | 0.00 | 0.05 | 0.00 | 88 | 1009.4 |
| 20260904084532 | 18 | 245 | 0.0 | 0.0 | 0.00 | 0.05 | 0.00 | 88 | 1009.5 |
| 20260904083036 | 18 | 245 | 0.0 | 0.0 | 0.00 | 0.05 | 0.00 | 88 | 1009.3 |
| 20260904081505 | 18 | 245 | 0.0 | 0.0 | 0.00 | 0.86 | 0.00 | 88 | 1009.4 |
| 20260904080105 | 18 | 245 | 0.0 | 0.0 | 0.00 | 0.86 | 0.00 | 88 | 1009.5 |
| 20260904074558 | 18 | 245 | 0.0 | 0.0 | 0.00 | 0.86 | 0.00 | 88 | 1009.7 |
| 20260904073057 | 18 | 245 | 0.0 | 0.0 | 0.00 | 0.86 | 0.00 | 88 | 1009.8 |
| 20260904071554 | 19 | 245 | 0.0 | 0.0 | 0.00 | 1.30 | 0.00 | 88 | 1009.9 |
| 20260904070052 | 19 | 245 | 0.0 | 0.0 | 0.00 | 1.30 | 0.00 | 88 | 1010.2 |
| 20260904064554 | 19 | 245 | 0.0 | 0.0 | 0.00 | 1.30 | 0.00 | 88 | 1010.1 |
| 20260904063046 | 19 | 245 | 0.0 | 0.0 | 0.00 | 1.30 | 0.00 | 88 | 1010.3 |
| 20260904061551 | 19 | 245 | 0.0 | 0.0 | 0.00 | 1.30 | 0.00 | 88 | 1010.4 |
| 20260904060043 | 19 | 245 | 0.0 | 0.0 | 0.00 | 1.30 | 0.00 | 88 | 1010.5 |
| 20260904054543 | 19 | 245 | 0.0 | 0.0 | 0.00 | 1.30 | 0.00 | 88 | 1010.5 |
| 20260904053039 | 19 | 245 | 0.0 | 0.0 | 0.00 | 1.30 | 0.00 | 88 | 1010.7 |
| 20260904050035 | 20 | 245 | 0.0 | 0.0 | 0.00 | 1.30 | 0.00 | 88 | 1010.9 |
| 20260904044548 | 20 | 245 | 0.0 | 0.0 | 0.00 | 1.30 | 0.00 | 88 | 1011.0 |
| 20260904043036 | 20 | 245 | 0.0 | 0.0 | 0.00 | 1.30 | 0.00 | 88 | 1011.1 |
| 20260904041529 | 20 | 245 | 0.0 | 0.0 | 0.00 | 1.30 | 0.00 | 88 | 1011.3 |
| 20260904040029 | 20 | 245 | 0.0 | 0.0 | 0.00 | 1.30 | 0.00 | 88 | 1011.5 |
| 20260904034528 | 20 | 245 | 0.0 | 0.0 | 0.00 | 1.30 | 0.00 | 88 | 1011.5 |
| 20260904033018 | 20 | 245 | 0.0 | 0.0 | 0.00 | 1.30 | 0.00 | 88 | 1011.5 |
| 20260904031517 | 20 | 245 | 0.0 | 0.0 | 0.00 | 1.30 | 0.00 | 88 | 1011.6 |
| 20260904030021 | 20 | 245 | 0.0 | 0.0 | 0.00 | 1.30 | 0.00 | 88 | 1011.8 |
| 20260904024516 | 20 | 245 | 0.0 | 0.0 | 0.00 | 1.30 | 0.00 | 88 | 1011.6 |
| 20260904023012 | 20 | 245 | 0.0 | 0.0 | 0.00 | 1.30 | 0.00 | 88 | 1011.6 |
| 20260904021521 | 21 | 245 | 0.0 | 0.0 | 0.00 | 1.30 | 0.00 | 88 | 1012.2 |
| 20260904020050 | 21 | 245 | 0.0 | 0.0 | 0.00 | 1.30 | 0.00 | 88 | 1012.0 |
| 20260904014553 | 21 | 245 | 0.0 | 0.0 | 0.00 | 1.30 | 0.00 | 88 | 1012.0 |
| 20260904013048 | 21 | 245 | 0.0 | 0.0 | 0.00 | 1.30 | 0.00 | 87 | 1012.1 |
| 20260904011546 | 21 | 245 | 0.0 | 0.0 | 0.00 | 1.30 | 0.00 | 87 | 1012.1 |
| 20260904010045 | 21 | 245 | 0.0 | 0.0 | 0.00 | 1.30 | 0.00 | 87 | 1012.1 |
| 20260904004545 | 21 | 245 | 0.0 | 0.0 | 0.00 | 1.30 | 0.00 | 87 | 1012.2 |
| 20260904003043 | 21 | 245 | 0.0 | 0.0 | 0.00 | 1.30 | 0.00 | 87 | 1011.9 |
| 20260904001537 | 22 | 245 | 0.0 | 0.0 | 0.00 | 1.30 | 0.00 | 87 | 1011.8 |
| 20260904000048 | 22 | 245 | 0.0 | 0.0 | 0.00 | 1.30 | 0.00 | 86 | 1011.6 |
| 20260903234543 | 22 | 245 | 0.0 | 0.0 | 0.00 | 1.30 | 0.00 | 86 | 1011.2 |
| 20260903233046 | 23 | 245 | 0.0 | 0.0 | 0.00 | 1.30 | 0.00 | 85 | 1011.2 |
| 20260903231536 | 23 | 245 | 0.0 | 0.0 | 0.00 | 1.30 | 0.00 | 84 | 1011.3 |
| 20260903230034 | 24 | 245 | 0.0 | 0.0 | 0.00 | 1.30 | 0.00 | 81 | 1011.1 |
| 20260903224529 | 25 | 245 | 0.0 | 0.0 | 0.00 | 1.30 | 0.00 | 80 | 1011.2 |
| 20260903223024 | 26 | 245 | 0.0 | 0.0 | 0.00 | 1.30 | 0.00 | 76 | 1011.2 |
| 20260903221523 | 26 | 245 | 0.0 | 0.0 | 0.00 | 1.30 | 1.30 | 77 | 1011.3 |
| 20260903220125 | 25 | 245 | 0.0 | 0.0 | 0.00 | 1.30 | 1.30 | 79 | 1011.4 |
| 20260903214528 | 25 | 245 | 0.0 | 0.0 | 0.00 | 1.30 | 1.30 | 79 | 1011.5 |
| 20260903213018 | 25 | 245 | 0.0 | 4.8 | 0.00 | 1.30 | 1.30 | 78 | 1011.5 |
| 20260903211516 | 25 | 249 | 0.0 | 0.0 | 0.00 | 1.30 | 1.30 | 77 | 1011.3 |
| 20260903210047 | 25 | 249 | 0.0 | 0.0 | 0.00 | 1.30 | 1.30 | 76 | 1011.4 |
| 20260903204546 | 25 | 255 | 0.0 | 1.6 | 0.00 | 1.30 | 1.30 | 77 | 1011.4 |
| 20260903203043 | 26 | 276 | 0.0 | 6.4 | 0.00 | 1.30 | 1.30 | 73 | 1011.4 |
| 20260903201542 | 26 | 277 | 0.0 | 1.6 | 0.00 | 1.30 | 1.30 | 74 | 1011.4 |
| 20260903200041 | 26 | 277 | 0.0 | 0.0 | 0.00 | 1.30 | 1.30 | 74 | 1011.5 |
| 20260903194538 | 26 | 277 | 0.0 | 0.0 | 0.00 | 1.30 | 1.30 | 75 | 1011.7 |
| 20260903193032 | 25 | 277 | 0.0 | 0.0 | 0.00 | 1.30 | 1.30 | 76 | 1011.8 |
| 20260903191546 | 25 | 277 | 0.0 | 0.0 | 0.00 | 1.30 | 1.30 | 75 | 1011.9 |
| 20260903190025 | 25 | 277 | 0.0 | 0.0 | 0.00 | 1.30 | 1.30 | 77 | 1012.1 |
| 20260903184533 | 25 | 277 | 0.0 | 0.0 | 0.00 | 1.30 | 1.30 | 76 | 1012.3 |
| 20260903183022 | 24 | 277 | 0.0 | 1.6 | 0.00 | 1.30 | 1.30 | 75 | 1012.4 |
| 20260903181550 | 24 | 277 | 1.6 | 8.0 | 0.00 | 1.32 | 1.30 | 79 | 1012.4 |
| 20260903180052 | 24 | 267 | 0.0 | 1.6 | 0.00 | 1.32 | 1.30 | 79 | 1012.5 |
| 20260903174545 | 23 | 265 | 4.8 | 14.5 | 0.00 | 1.32 | 1.30 | 80 | 1012.5 |
| 20260903173042 | 23 | 259 | 0.0 | 0.0 | 0.00 | 1.32 | 1.30 | 81 | 1012.8 |
| 20260903171541 | 23 | 201 | 0.0 | 0.0 | 0.00 | 1.32 | 1.30 | 81 | 1012.7 |
| 20260903170040 | 23 | 203 | 0.0 | 14.5 | 0.00 | 1.32 | 1.30 | 81 | 1013.0 |
| 20260903164535 | 23 | 209 | 1.6 | 14.5 | 0.00 | 1.32 | 1.30 | 83 | 1013.1 |
| 20260903163033 | 22 | 241 | 0.0 | 11.3 | 0.00 | 1.32 | 1.30 | 85 | 1013.0 |
| 20260903161527 | 22 | 281 | 4.8 | 12.9 | 0.00 | 1.32 | 1.30 | 86 | 1013.1 |
| 20260903160024 | 21 | 241 | 1.6 | 9.7 | 0.00 | 1.32 | 1.30 | 88 | 1013.1 |
| 20260903153016 | 20 | 299 | 0.0 | 1.6 | 0.00 | 1.32 | 1.30 | 89 | 1013.3 |
| 20260903151515 | 20 | 299 | 0.0 | 6.4 | 0.00 | 1.32 | 1.30 | 89 | 1013.4 |
| 20260903150019 | 20 | 299 | 0.0 | 6.4 | 0.00 | 1.32 | 1.30 | 90 | 1013.5 |